Wind_Speed
21 22 25 26 29 29 30 32 31 28 26 27 27 29 31 30 33 36 34 24 20 15 14 22 22 21 22 21 20 17 17 13 10 11 14 12 10 10 13 16 18 20 21 22 22 21 22
20 22 24 24 24 24 24 26 25 27 27 30 31 29 30 34 38 29 24 22 18 15 22 27 24 24 22 21 17 16 14 12 10 7 3 7 7 7 7 10 16 17 19 19 20 20 18
19 23 23 23 25 27 26 24 25 25 29 32 29 33 32 26 23 25 16 16 16 21 28 28 29 25 22 18 17 14 13 11 6 3 4 3 6 9 9 11 14 17 20 21 22 22 20
27 20 24 29 27 27 32 27 30 28 28 28 30 26 19 17 13 10 9 16 23 25 27 29 25 23 21 20 18 14 10 7 5 5 6 5 5 8 9 12 17 19 21 23 22 22 24
28 28 22 22 26 32 32 33 32 28 30 26 21 18 17 15 9 10 14 23 22 25 26 25 22 20 19 17 13 12 9 9 8 9 9 11 12 12 15 20 21 21 23 26 27 26 28
25 31 28 25 24 24 31 35 34 31 28 22 20 20 20 14 10 14 15 18 19 16 20 23 22 18 14 12 10 8 9 10 12 14 13 14 16 18 20 23 25 25 26 28 30 32 31
31 27 31 28 26 24 24 30 31 29 25 21 25 22 22 17 15 15 16 16 15 13 16 21 19 16 15 13 13 13 12 14 18 20 20 21 23 24 27 29 30 30 31 32 33 35 36
32 31 30 31 26 23 19 22 25 23 22 24 28 25 24 21 19 20 19 19 18 16 16 17 17 16 16 16 17 19 18 20 22 24 25 25 27 31 33 34 36 37 37 34 36 38 39
35 35 30 31 28 26 22 18 20 22 23 29 32 30 29 26 23 22 22 20 18 18 18 17 19 20 21 22 25 26 28 30 30 30 32 35 36 37 38 40 41 40 37 36 40 41 43
42 39 36 32 31 27 28 26 25 25 26 31 36 34 33 30 29 25 21 20 21 20 21 23 24 24 25 27 29 30 31 31 31 33 33 35 38 38 37 36 38 41 43 46 44 46 49
52 46 44 38 34 32 31 32 32 31 31 32 40 38 34 33 31 28 25 25 27 27 25 25 25 26 29 30 30 30 32 33 33 36 36 37 39 40 42 43 44 46 45 47 49 51 50
60 54 51 47 41 39 36 39 39 39 39 39 41 40 39 37 35 33 29 23 22 20 21 21 22 24 26 29 32 33 34 34 36 37 38 38 40 40 43 45 46 48 50 51 52 53 53
68 64 60 57 49 46 43 43 48 47 45 45 45 46 45 44 37 37 35 32 28 30 30 30 30 31 31 34 35 36 38 41 38 38 39 44 44 45 48 50 51 53 55 54 56 57 59
67 66 65 62 62 54 50 49 53 56 52 52 51 51 50 49 45 44 43 41 37 36 36 38 39 38 39 38 38 38 40 41 43 45 48 47 47 49 51 53 56 57 59 61 60 61 62
69 73 71 69 67 66 57 54 55 61 62 59 58 57 55 54 51 51 46 45 44 45 44 43 45 45 43 41 39 42 47 50 50 53 49 47 51 54 56 58 60 61 63 66 68 69 68
81 77 74 74 73 76 67 61 59 61 67 66 65 65 63 59 56 53 50 51 51 50 49 50 51 51 52 52 53 52 54 53 54 51 49 54 55 58 59 61 62 64 66 70 74 73 71
82 83 81 75 71 80 74 69 64 65 65 71 71 71 71 67 65 61 59 59 59 57 56 57 58 58 57 60 58 56 53 54 52 54 56 57 57 59 62 65 67 70 70 74 77 76 78
93 88 85 83 79 81 80 79 72 71 71 68 69 73 75 74 70 68 66 66 65 63 63 63 63 63 63 60 59 58 59 60 58 60 60 60 60 62 66 69 71 72 77 77 79 81 83
107 96 88 88 85 87 91 90 82 78 77 76 73 72 74 77 74 73 73 71 71 70 70 68 66 65 63 63 63 62 63 64 66 65 67 68 65 69 69 71 73 75 79 80 83 86 89
105 110 101 92 92 89 92 89 94 86 84 83 81 80 78 77 76 75 75 74 74 73 72 68 64 64 67 65 65 64 68 69 69 72 73 75 76 77 76 76 78 80 83 87 88 90 94
104 115 111 104 96 93 93 88 93 93 90 93 86 86 84 83 81 81 80 78 76 72 69 70 69 71 70 70 72 72 73 74 74 76 76 76 76 80 79 82 80 81 85 90 94 97 99
111 112 117 108 108 96 94 89 87 92 95 95 95 93 89 88 85 81 81 79 77 76 74 73 73 75 73 75 77 78 78 80 81 81 82 82 84 85 86 84 87 88 93 97 100 102 102
117 115 122 117 111 109 105 98 90 92 91 96 99 93 95 93 91 90 84 81 82 81 78 78 80 78 79 82 84 84 83 87 88 87 89 90 93 94 92 92 95 96 99 100 103 104 105
122 121 124 124 121 113 109 105 101 98 97 96 98 92 102 97 94 93 90 89 87 86 85 84 83 83 85 86 85 84 87 86 86 89 95 96 95 99 99 99 102 101 103 102 105 105 107
126 125 124 126 128 120 117 114 111 109 105 98 98 102 100 100 103 98 96 95 94 90 92 93 91 90 87 83 84 84 84 83 87 92 94 100 106 109 107 105 103 96 99 104 106 107 110
125 128 127 128 132 130 122 120 117 112 113 108 107 106 107 107 105 108 103 101 100 99 95 94 90 92 89 85 90 89 87 89 94 94 101 106 112 105 101 108 102 102 104 108 108 111 114
119 131 131 131 133 132 127 126 124 119 118 117 115 113 110 110 107 107 107 108 106 105 101 100 99 96 93 94 93 91 92 95 98 102 103 96 102 106 109 109 108 110 113 115 117 119 121
105 128 131 133 132 137 130 130 130 125 123 120 119 117 115 110 108 110 109 109 109 108 108 108 105 100 98 97 99 101 101 102 99 97 102 104 108 110 112 114 114 118 120 121 124 126 128
93 118 132 132 135 138 138 133 133 131 127 126 117 118 119 120 110 113 113 112 112 110 104 105 106 101 101 100 98 97 96 97 103 107 108 110 112 115 116 118 123 126 128 129 131 131 134
Wind_Direction
256 245 249 255 256 257 263 264 268 270 264 264 269 269 278 282 283 284 282 277 272 252 215 178 176 166 159 160 157 147 142 139 115 114 113 105 94 60 50 51 46 40 37 28 28 26 25
260 254 256 263 263 260 260 261 255 255 261 264 267 277 285 281 287 282 278 266 253 220 180 169 165 162 158 158 159 151 149 139 142 145 108 73 61 42 34 29 36 27 19 22 8 8 360
305 257 257 260 255 258 262 256 251 257 259 262 267 282 278 279 277 285 261 235 215 181 171 165 161 163 169 167 170 165 164 154 137 105 94 87 85 74 48 26 10 2 360 2 359 357 353
303 297 263 257 258 259 254 258 253 256 255 268 276 269 244 246 256 251 201 172 163 164 169 170 173 173 173 174 174 179 187 198 228 242 266 274 309 341 348 348 347 342 342 342 343 346 345
300 301 296 277 265 260 257 253 256 261 261 266 254 224 223 225 189 179 169 165 163 164 175 178 179 179 179 187 194 202 219 231 246 266 282 291 294 306 312 322 322 326 330 328 333 332 334
281 291 294 295 288 274 258 251 255 260 262 249 212 216 206 196 186 184 167 160 164 177 184 185 187 183 190 203 205 224 249 263 265 270 280 290 296 300 308 315 316 320 324 322 324 326 325
278 273 283 290 293 282 267 248 245 252 252 220 206 208 200 197 184 182 181 179 185 179 181 191 204 218 222 221 230 244 256 265 269 276 281 288 291 294 302 308 310 308 312 321 320 321 319
266 264 271 277 282 276 271 242 238 240 235 213 206 204 203 199 196 197 199 202 200 209 210 209 219 233 233 242 249 254 266 267 268 274 277 286 300 301 302 300 304 310 310 310 312 310 307
255 259 257 264 272 267 261 242 228 226 232 211 211 210 207 208 212 216 220 222 225 232 241 248 251 253 257 259 261 266 269 271 275 276 282 289 292 301 303 303 307 306 304 301 303 304 306
252 255 255 254 260 259 253 243 221 224 227 211 209 214 218 221 224 227 228 238 244 247 249 253 258 263 266 266 266 271 279 280 283 280 280 290 297 302 300 300 299 299 301 303 304 306 309
254 251 254 250 248 247 247 237 225 224 225 220 213 218 220 227 229 231 233 245 246 248 252 259 260 268 270 270 274 271 278 287 294 298 295 296 298 298 297 298 299 301 303 304 305 309 312
249 250 254 250 248 242 238 235 226 223 222 223 220 222 227 231 234 233 241 249 245 245 249 257 267 274 280 281 283 287 289 291 293 296 295 297 297 297 300 300 297 297 300 305 308 310 312
247 253 253 251 246 242 237 232 228 226 227 225 225 225 227 231 234 237 239 248 252 250 252 260 266 273 277 277 279 281 289 291 289 292 291 294 295 296 297 298 298 300 303 305 310 310 313
241 246 247 251 248 243 237 233 229 228 228 232 229 231 233 236 241 239 243 249 253 258 259 263 267 271 282 277 276 277 281 280 285 290 296 296 296 297 297 297 300 302 303 306 308 310 314
244 244 244 244 253 245 237 234 232 229 230 231 235 236 237 238 242 243 247 249 254 257 261 264 266 272 281 281 273 276 286 284 285 288 291 292 296 297 298 300 302 304 307 307 309 312 314
242 245 239 246 249 245 238 233 234 234 230 232 235 238 241 243 245 248 249 250 252 255 261 265 270 274 279 279 282 285 289 282 287 289 293 295 298 298 299 299 301 304 306 307 308 311 312
235 241 243 238 237 241 241 235 234 235 235 233 235 237 239 242 246 249 250 251 253 257 261 266 270 276 279 283 286 287 285 282 287 291 293 297 296 297 299 302 303 304 305 307 309 312 314
231 233 236 238 237 236 244 240 238 236 235 238 238 236 239 240 242 245 247 250 255 258 265 269 272 275 278 280 281 282 282 282 286 291 294 296 298 300 301 304 304 305 307 308 310 312 311
231 224 232 235 235 236 238 240 243 239 238 236 238 239 240 241 242 245 249 253 256 260 263 267 271 273 274 276 279 280 280 280 283 286 290 292 294 296 300 303 305 307 306 309 309 310 309
233 227 225 229 235 234 235 237 241 241 239 237 236 237 240 242 243 245 248 252 255 259 263 266 266 267 270 272 275 275 278 280 283 287 289 290 291 296 300 303 306 306 307 307 307 306 306
227 227 223 225 229 229 234 237 239 242 245 242 240 239 238 241 245 247 249 252 255 257 258 261 263 265 268 271 271 273 276 280 283 287 288 291 293 296 300 303 305 305 303 301 302 303 306
226 224 222 221 226 227 232 231 236 239 245 246 245 242 241 240 242 245 249 250 252 255 256 259 262 265 269 272 275 279 280 281 281 286 289 291 294 296 299 301 302 305 305 305 304 304 306
225 221 220 218 222 224 227 227 230 235 237 241 247 249 248 244 241 242 245 248 250 252 255 258 261 266 271 273 275 278 284 284 287 289 290 292 294 296 297 298 302 307 307 306 305 305 306
221 222 220 219 219 223 224 227 223 230 236 236 240 245 250 246 247 245 245 247 250 253 257 260 263 266 271 275 277 281 284 287 288 290 290 292 294 294 295 298 302 303 302 302 304 306 307
219 220 220 219 218 221 223 222 227 229 230 235 235 240 243 246 251 253 254 253 255 258 261 263 268 268 273 277 281 284 285 286 287 289 291 292 292 292 295 296 299 303 301 302 305 306 307
218 219 220 219 219 220 223 223 225 228 230 230 238 239 241 244 248 254 255 259 259 261 263 266 270 274 274 275 277 282 283 286 286 286 290 290 290 292 297 299 301 302 302 302 304 305 305
221 219 220 220 220 219 221 223 224 226 230 229 233 237 239 243 247 252 255 255 258 259 262 264 269 271 272 275 279 280 279 281 284 287 290 286 289 295 296 297 299 299 301 303 304 305 306
223 220 222 221 221 220 220 224 223 226 229 231 232 235 240 240 244 246 251 254 256 260 262 264 267 269 269 270 273 275 276 278 282 284 287 288 290 293 295 296 298 299 300 302 304 305 306
226 222 223 224 222 221 220 223 226 225 228 232 231 234 237 238 240 245 248 251 254 257 261 263 265 266 269 273 274 275 277 276 280 282 285 288 290 291 292 295 297 298 300 301 302 304 306
Height
10764 10765 10766 10767 10767 10768 10769 10770 10771 10772 10772 10773 10773 10772 10772 10770 10768 10767 10765 10764 10764 10765 10767 10770 10775 10779 10781 10782 10783 10784 10784 10784 10783 10782 10781 10780 10778 10777 10776 10775 10774 10773 10772 10770 10768 10767 10766
10760 10761 10762 10762 10762 10762 10763 10763 10764 10766 10767 10767 10768 10768 10767 10765 10763 10760 10759 10759 10761 10762 10765 10769 10774 10777 10780 10782 10782 10783 10783 10783 10782 10782 10781 10780 10779 10778 10777 10776 10775 10773 10772 10771 10768 10767 10765
10756 10756 10757 10757 10757 10758 10758 10758 10759 10760 10761 10762 10763 10762 10762 10761 10760 10757 10754 10754 10757 10760 10765 10770 10773 10775 10778 10780 10781 10781 10781 10782 10781 10781 10781 10780 10779 10778 10777 10776 10774 10772 10770 10768 10766 10764 10761
10752 10751 10751 10751 10752 10752 10753 10753 10753 10754 10754 10756 10756 10756 10757 10758 10758 10755 10753 10753 10756 10760 10765 10769 10772 10774 10775 10778 10779 10780 10780 10780 10780 10779 10779 10778 10777 10776 10775 10773 10772 10770 10768 10766 10764 10761 10758
10748 10748 10747 10746 10746 10745 10746 10747 10748 10749 10749 10750 10750 10752 10754 10756 10756 10756 10756 10756 10758 10762 10765 10768 10771 10773 10774 10775 10777 10778 10778 10778 10777 10777 10776 10776 10774 10773 10772 10770 10769 10767 10765 10761 10760 10757 10754
10743 10742 10742 10741 10740 10738 10738 10739 10742 10744 10745 10745 10746 10749 10751 10753 10754 10756 10758 10758 10761 10763 10765 10768 10769 10771 10772 10773 10774 10774 10775 10774 10774 10773 10772 10771 10770 10769 10767 10765 10763 10761 10760 10757 10753 10751 10749
10737 10736 10737 10736 10735 10733 10730 10731 10735 10738 10739 10742 10744 10746 10749 10750 10752 10755 10757 10759 10761 10762 10764 10766 10768 10769 10769 10770 10770 10770 10770 10769 10768 10767 10767 10765 10764 10763 10762 10760 10757 10756 10754 10753 10748 10745 10742
10731 10731 10731 10732 10731 10730 10728 10726 10729 10732 10735 10739 10742 10744 10746 10748 10750 10753 10755 10757 10758 10760 10761 10763 10764 10765 10765 10765 10765 10765 10764 10764 10763 10762 10760 10759 10758 10756 10753 10752 10750 10748 10747 10746 10743 10739 10735
10725 10725 10724 10725 10727 10726 10726 10724 10725 10728 10732 10735 10738 10741 10743 10745 10747 10749 10751 10753 10754 10756 10757 10758 10759 10760 10759 10759 10759 10758 10758 10757 10756 10755 10753 10752 10750 10748 10745 10743 10740 10738 10736 10735 10733 10729 10726
10717 10718 10719 10719 10720 10722 10723 10723 10722 10725 10728 10731 10734 10736 10739 10741 10743 10744 10746 10748 10749 10749 10751 10752 10752 10752 10752 10752 10752 10751 10751 10750 10748 10746 10744 10743 10742 10739 10736 10734 10731 10728 10726 10723 10723 10721 10716
10708 10710 10711 10712 10712 10714 10716 10719 10719 10720 10724 10726 10729 10731 10733 10736 10738 10739 10741 10741 10743 10743 10744 10745 10746 10745 10745 10745 10745 10744 10743 10742 10740 10739 10736 10735 10732 10730 10727 10725 10721 10718 10715 10713 10710 10707 10705
10695 10700 10702 10704 10705 10705 10708 10711 10714 10714 10716 10720 10722 10725 10727 10729 10731 10733 10734 10735 10736 10737 10737 10739 10739 10739 10739 10739 10738 10736 10735 10733 10732 10730 10728 10726 10723 10721 10717 10713 10710 10707 10702 10701 10697 10692 10691
10682 10687 10692 10694 10695 10697 10698 10700 10704 10707 10709 10711 10714 10716 10718 10720 10723 10725 10726 10728 10729 10730 10731 10731 10731 10731 10731 10730 10729 10728 10726 10724 10723 10721 10719 10716 10713 10709 10706 10702 10699 10695 10689 10686 10686 10679 10674
10661 10670 10675 10681 10683 10686 10687 10689 10692 10695 10698 10702 10704 10706 10709 10711 10713 10715 10717 10719 10720 10720 10721 10721 10721 10721 10720 10721 10719 10718 10716 10714 10713 10711 10710 10706 10702 10698 10694 10691 10686 10681 10675 10669 10669 10666 10662
10640 10647 10656 10662 10669 10672 10674 10677 10678 10681 10685 10689 10692 10695 10697 10699 10701 10704 10706 10708 10708 10709 10710 10710 10710 10710 10709 10709 10709 10707 10705 10702 10702 10700 10699 10697 10693 10687 10681 10677 10671 10667 10660 10653 10649 10647 10644
10621 10628 10633 10643 10651 10654 10658 10661 10665 10667 10670 10675 10678 10682 10685 10687 10689 10692 10695 10695 10696 10697 10698 10698 10698 10699 10697 10697 10698 10696 10694 10691 10689 10687 10686 10684 10683 10675 10670 10664 10660 10654 10649 10641 10634 10630 10628
10601 10605 10612 10622 10628 10634 10639 10644 10649 10652 10655 10658 10662 10667 10668 10672 10676 10680 10683 10682 10682 10684 10685 10685 10684 10686 10687 10683 10685 10684 10683 10677 10677 10674 10671 10669 10667 10663 10656 10651 10645 10639 10633 10626 10616 10608 10603
10577 10582 10590 10599 10606 10612 10620 10626 10631 10635 10638 10641 10646 10650 10651 10656 10661 10666 10667 10666 10667 10671 10671 10671 10671 10671 10671 10671 10670 10671 10667 10663 10663 10660 10658 10654 10653 10648 10643 10637 10631 10625 10617 10608 10598 10592 10585
10545 10554 10566 10575 10582 10590 10597 10604 10610 10616 10620 10623 10627 10632 10635 10640 10647 10650 10650 10652 10653 10655 10655 10656 10656 10655 10656 10656 10656 10656 10652 10649 10648 10645 10644 10640 10638 10631 10629 10623 10616 10611 10603 10594 10584 10577 10569
10507 10523 10537 10548 10557 10566 10572 10580 10587 10593 10598 10603 10608 10613 10619 10622 10629 10632 10634 10635 10637 10638 10638 10640 10640 10641 10639 10641 10641 10643 10636 10634 10632 10628 10626 10623 10620 10613 10608 10605 10601 10596 10587 10574 10566 10558 10552
10470 10486 10505 10517 10530 10544 10550 10556 10563 10571 10577 10585 10590 10595 10601 10606 10611 10614 10615 10619 10621 10622 10622 10622 10625 10622 10623 10624 10622 10622 10621 10618 10614 10611 10607 10604 10603 10597 10592 10585 10581 10578 10570 10555 10546 10535 10529
10432 10450 10470 10485 10503 10516 10526 10531 10542 10548 10556 10564 10570 10577 10581 10585 10590 10593 10596 10604 10603 10603 10605 10605 10605 10604 10607 10606 10604 10603 10601 10599 10598 10592 10588 10584 10583 10578 10577 10565 10564 10564 10550 10538 10527 10519 10510
10396 10414 10434 10452 10470 10488 10499 10512 10524 10528 10532 10539 10545 10551 10555 10566 10568 10573 10579 10581 10583 10584 10585 10587 10586 10588 10587 10586 10585 10585 10583 10580 10578 10572 10567 10563 10558 10556 10559 10549 10545 10546 10532 10517 10508 10499 10489
10360 10380 10400 10421 10439 10456 10473 10486 10498 10506 10510 10518 10525 10526 10529 10544 10549 10556 10561 10562 10562 10564 10566 10567 10567 10569 10567 10567 10564 10564 10565 10562 10559 10553 10548 10543 10535 10531 10533 10530 10530 10526 10516 10502 10493 10484 10471
10327 10347 10367 10388 10407 10424 10443 10461 10471 10480 10488 10496 10502 10506 10510 10519 10527 10533 10538 10544 10545 10546 10546 10546 10547 10549 10548 10544 10543 10542 10543 10540 10539 10536 10530 10521 10515 10508 10511 10509 10508 10501 10488 10476 10469 10463 10446
10298 10318 10337 10356 10376 10393 10412 10433 10443 10453 10463 10474 10480 10484 10490 10493 10509 10511 10515 10519 10523 10524 10524 10525 10526 10527 10526 10524 10522 10523 10521 10519 10518 10515 10508 10501 10497 10492 10481 10479 10480 10478 10465 10455 10446 10441 10425
10275 10290 10309 10327 10347 10363 10384 10403 10417 10428 10437 10448 10459 10463 10466 10475 10485 10490 10492 10496 10500 10503 10504 10502 10506 10507 10505 10505 10502 10503 10502 10500 10496 10494 10489 10480 10474 10468 10458 10455 10458 10448 10438 10430 10420 10412 10403
10252 10270 10282 10298 10318 10337 10357 10375 10389 10404 10410 10420 10432 10440 10449 10453 10459 10467 10470 10472 10475 10482 10481 10481 10483 10487 10485 10484 10483 10482 10481 10479 10476 10474 10470 10461 10452 10448 10438 10431 10431 10423 10413 10406 10397 10386 10376
10231 10246 10262 10276 10293 10312 10329 10346 10360 10378 10378 10395 10410 10418 10425 10430 10440 10443 10447 10450 10458 10458 10459 10460 10462 10463 10460 10462 10460 10458 10459 10456 10452 10450 10445 10439 10433 10424 10418 10413 10404 10397 10390 10381 10370 10359 10349